Skip Page Navigation
NASA JPL Caltech
NASA Logo - Jet Propulsion Laboratory + View the NASA Portal
+ Near-Earth Object (NEO) Program
Search JPL
JPL Home Earth Solar System Stars & Galaxies Technology
JPL Solar System Dynamics
BODIES ORBITS EPHEMERIDES TOOLS PHYSICAL DATA DISCOVERY FAQ SITE MAP
JPL Small-Body Database Browser
Search: [ help ]  
10579 Diluca (1995 OE)
Classification: Main-belt Asteroid          SPK-ID: 2010579
Ephemeris | Orbit Diagram | Orbital Elements | Physical Parameters | Discovery Circumstances ]

[ show orbit diagram ]
Orbital Elements at Epoch 2456400.5 (2013-Apr-18.0) TDB
Reference: MPO253439 (heliocentric ecliptic J2000)
 Element Value Uncertainty (1-sigma)   Units 
e 0.0616035 n/a  
a 3.0600514 n/a AU
q 2.8715415 n/a AU
i 8.90444 n/a deg
node 255.54939 n/a deg
peri 213.57993 n/a deg
M 304.30723 n/a deg
tp 2456702.9738458
(2014-Feb-14.47384580)
n/a JED
period 1955.2014468
5.35
n/a
n/a
d
yr
n 0.18412425 n/a deg/d
Q 3.2485613 n/a AU
  Orbit Determination Parameters
   # obs. used (total)      897  
   first obs. used      1995-??-??  
   last obs. used      2013-02-06  
   # oppositions      15  
   planetary ephem.      DE403  
   condition code      0  
   fit RMS      0.52  
   data source      MPC:mpn  
   producer      MPCLINUX  

Additional Information
 T_jup = 3.213 

Ephemeris | Orbit Diagram | Orbital Elements | Physical Parameters | Discovery Circumstances ]

Physical Parameter Table
Parameter Symbol Value Units Sigma Reference Notes
absolute magnitude H 12.7 mag n/a PDS3 (MPC 34457)  

10579 Diluca           Discovered 1995 July 20 at Osservatorio San Vittore.
Roberto Di Luca (b. 1959), amateur observer of lunar and asteroidal occultations, is network manager at the Astronomical Observatory of the University of Bologna. As a member of the Associazione Astrofili Bolognesi, he often collaborates with the group at the Osservatorio San Vittore in Bologna.
NOTE: some special characters may not display properly (any characters within {} are an attempt to place the proper accent above a character)
Reference: 19991123/MPCPages.arcLast Updated: 2010-06-11
Ephemeris | Orbit Diagram | Orbital Elements | Physical Parameters | Discovery Circumstances ]
ABOUT SSD CREDITS/AWARDS PRIVACY/COPYRIGHT GLOSSARY LINKS
FirstGov 2013-May-25 18:21 UT
(server date/time)  
NASA Home Page
Site Manager:   Donald K. Yeomans
Webmaster  Alan B. Chamberlin